Showing default

NORBI, 46494

Orbit data source: Space-Track

NORBI, 46494 is a payload satellite owned by Novosibirsk SU (CIS) in SSO that was launched on Mon, 28 Sep 2020 UTC via a SOYUZ-2-1B launch vehicle from the Plesetsk Missile And Space Complex (PKMTR). Payload-class satellites include a variety of spacecraft equipped with specific instruments for various scientific and technological missions. These include communications satellites like Starlink; space stations such as the ISS; scientific satellites like the Hubble; Earth observation satellites from companies like Planet Labs, Umbra, and HawkEye 360; GPS; miniature CubeSats for education and research; and military/defense satellites.

Loading next visibility...
Identifier
46494, 2020-068J
Orbit
SSO
Country
Flag of CISCIS
Related business
Manufacturer
Novosibirsk SU
Mission
Operational Amateur Science
Bus & Motor
CUBESAT 6U, Unknown motor
Mass
~10 kg wet, ~10 kg dry
Launch date (UTC)
2020-09-28 (6 years ago)
Launch vehicle
SOYUZ-2-1B
Launch site
Plesetsk Missile And Space Complex (PKMTR)
Object type
Payload
Rocket body
Debris
Shape & HBR
Box + 2 Pan, Unknown HBR
Radar Cross Section
0.035 m², Medium (>0.1 m² and < 1m²)

Expand to show TLE details & history
Last TLE update: 11 hours ago

TLE from 11 hours ago
0 NORBI
1 46494U 20068J   26171.00033611  .00018238  00000-0  34380-3 0  9997
2 46494  97.8625 187.2130 0005109 232.7677 127.3107 15.48551495316645
Epoch: 2026-06-20T00:00Z
TLE epoch observation values (Epoch: 2026-06-20T00:00:29.039Z)
Latitude
-0.00001°
Longitude
-81.12924°
Altitude
426.185 km
Speed
7.655 km/s
True Right ascension
12h 28m 51s
True Declination
0° 00' 00"
Sunlit
Object was in daylight at epoch
Visualization orbit readout
Latitude
Unknown
Longitude
Unknown
Altitude
Unknown
Speed
Unknown
Apparent Right ascension
Unknown
Apparent Declination
Unknown
Sunlit
N/A
Visualization observer readout
Local Sidereal Time
21:41:52
Azimuth
Unknown
Elevation
Unknown
Doppler factor
Unknown
Orbital elements
Apogee altitude
421.383 km
Perigee altitude
414.439 km
Semi-major axis
6,796.048 km
Eccentricity
0.00051
Inclination
97.8625°
RAAN
187.213°
Arg. of periapsis
232.7677°
True anomaly
127.35725°
Mean anomaly
127.3107°
Eccentric anomaly
127.33397°
Mean motion
3.87399 °/min
Orbital period
92.93 mins
BSTAR
0.0003438
Loading maneuver chart data...
Computing Atmospheric mass density...
Loading historical data...
Loading historical data...
Loading historical data...
Loading historical data...
Loading historical data...
Loading historical data...
Loading historical data...

Documentation

Showing up to 5 results
|